Showing default

OOV-CUBE, 60240

Orbit data source: Space-Track

OOV-CUBE, 60240 is a payload satellite in LEO that was launched on Tue, 09 Jul 2024 UTC via an ARIANE 62 launch vehicle from the French Guiana (FRGUI). Payload-class satellites include a variety of spacecraft equipped with specific instruments for various scientific and technological missions. These include communications satellites like Starlink; space stations such as the ISS; scientific satellites like the Hubble; Earth observation satellites from companies like Planet Labs, Umbra, and HawkEye 360; GPS; miniature CubeSats for education and research; and military/defense satellites.

Loading next visibility...
Identifier
60240, 2024-128F
Orbit
LEO
Last TLE update
7 hours ago
Origin
Manufacturer
TUB
Mission
Operational Amateur Technology
Bus & Motor
TUBSAT, Unknown motor
Mass
17 kg wet, 17 kg dry
Launch date (UTC)
2024-07-09 (10 months ago)
Launch vehicle
ARIANE 62
Launch site
French Guiana (FRGUI)
Object type
Payload
Rocket body
Debris
Shape & HBR
Box, 0.25 m
Radar Cross Section
0.094 m², Small (<0.1 m²)

Expand to show TLE details & history

TLE from 7 hours ago
0 OOV-CUBE
1 60240U 24128F   25139.20053157  .00002534  00000-0  21340-3 0  9999
2 60240  61.9942 156.6151 0049927  49.4337 311.1082 15.00125374 46959
Epoch: 2025-05-19T04:48Z
TLE epoch observation values (Epoch: 2025-05-19T04:48:45.927Z)
Latitude
-0.00007°
Longitude
-152.69286°
Altitude
545.579 km
Speed
7.602 km/s
True Right ascension
10h 26m 27s
True Declination
0° 00' 00"
Sunlit
Object was in daylight at epoch
Visualization orbit readout
Latitude
57.53559°
Longitude
-29.9283°
Altitude
556.348 km
Speed
7.6 km/s
Apparent Right ascension
11h 40m 26s
Apparent Declination
36° 21' 41"
Sunlit
Object is in daylight
Visualization observer readout
Local Sidereal Time
20:30:11
Azimuth
323.507° NNW
Elevation
-2.083°
Doppler factor
1
Orbital elements
Apogee altitude
600.107 km
Perigee altitude
530.773 km
Semi-major axis
6,943.577 km
Eccentricity
0.00499
Inclination
61.9942°
RAAN
156.6151°
Arg. of periapsis
49.4337°
True anomaly
Unknown
Mean anomaly
311.1082°
Eccentric anomaly
Unknown
Mean motion
3.75118 °/min
Orbital period
95.97 mins
BSTAR
0.0002134
Loading maneuver chart data...
Loading SW <> Apogee altitude chart data...
Loading historical data...
Loading historical data...
Loading historical data...
Loading historical data...
Loading historical data...
Loading historical data...
Loading historical data...

OOV-CUBE Visibility forecast

Observer location: undefined°, undefined°

Span
Click to sort rows by Start time (UTC) header in descending order
Start Az.
Max El. time (UTC)
Max El. Az.
Max El.
End time (UTC)
End Az.
8 mins2025-05-19 11:44:04.194Z323.957° NNW2025-05-19 11:48:04.194Z147.996° SSE44.938°2025-05-19 11:52:04.194Z145.398° SSE
6 mins2025-05-20 03:23:04.194Z235.591° WSW2025-05-20 03:25:04.194Z284.36° WNW39.478°2025-05-20 03:29:04.194Z27.818° NE
|